SL-16 DEB

Satellite information

Favourite Embed

Satellite Type and Status

DEBRISIN ORBIT

Key statistics

Satellite SL-16 DEB at a glance.

Uptime

11853

Days in orbit

Revolutions

≈ 14.4

Per day

Orbit

LEO

Low Earth Orbit

Inclination

71.0

Latest

Satellite identification and parameters

Extended collection of information and parameters for SL-16 DEB.

Object identification

Identified? True

Debris? True

Object name: SL-16 DEB

International designator: 1993-016AJ

Object number (NORAD): 26968

Object ID (CCSDS): 26968

Country: COMMONWEALTH OF INDEPENDENT STATES (CIS)

Current information (Y/N): Y

RCS size: SMALL

Orbital parameters

Period: 99.863 minutes

Inclination: 70.9971 deg

SMA: 7130.119 km

Apoapsis: 758.746 km

Periapsis: 745.222 km

RAAN: 165.8066 deg

Eccentricy: 0.00094834

Argument of periapsis: 309.8572 deg

Mean anomaly: 125.4195 deg

Mean motion: 14.41974491 rev/day

Mean motion (dot): 0.00004642 rev/day2

B* drag term: 0.0014287729 1/REarth

Two-line elements (TLE)

Creation date: Sept. 7, 2025, 3:09 a.m.

Reference frame: TEME

Reference center: EARTH

Epoch: Sept. 6, 2025, 10:15 p.m. UTC

TLE line 0: 0 SL-16 DEB

TLE line 1: 1 26968U 93016AJ 25249.92734413 .00004642 00000-0 14288-2 0 9996

TLE line 2: 2 26968 70.9971 165.8066 0009483 309.8572 125.4195 14.41974491688447

Live tracking on map

Real-time ground track for satellite SL-16 DEB.

In-orbit conjunctions

A list of the most updated potential collisions computed for object SL-16 DEB.

Target Orbit TCA Probability of collision Miss distance Type
CZ-2D R/B SSO 2024-11-29 21:23:11 0.0001020783 196.0 (m) ROCKET BODY
DMSP 5D-2 F13 DEB SSO 2024-11-11 11:36:32 0.0002622633 399.0 (m) DEBRIS
RITE TARGET 1 SSO 2024-07-16 08:22:46 0.0002798149 279.0 (m) PAYLOAD

Associated space launch

Second generation ELING satellite

SL-16 DEB was lifted into orbit during the mission ‘Zenit-2 | Tselina-2 13’, on board a Zenit-2 space rocket.

The launch took place on March 26, 1993, 2:21 a.m. from 45/1.

For more information about the launch, click the button.

Launch to space Zenit-2 | Tselina-2 13
Zenit-2 | Tselina-2 13

Agency: N/A

Status: Launch Successful

Launch date: March 26, 1993, 2:21 a.m. UTC

Rocket: Zenit-2

Launch pad: 45/1

Location: Baikonur Cosmodrome, Republic of Kazakhstan

...

Latest news about this satellite

There are no fresh news available about this satellite. Check back as we update our databases every day.


Newsletter sign-up

Weekly statistics, charts and insights to help you stay on top of the space industry.